• MPC Preparation (Info)

  • MPEC 2006-C15 : 2006 CG

    The following Minor Planet Electronic Circular may be linked-to from your own Web pages, but must not otherwise be redistributed electronically.

    A form allowing access to any MPEC is at the bottom of this page.


    Read MPEC 2006-C14 Read MPEC 2006-C16


    M.P.E.C. 2006-C15                                Issued 2006 Feb. 3, 18:53 UT
    
         The Minor Planet Electronic Circulars contain information on unusual
             minor planets and routine data on comets.  They are published
       on behalf of Commission 20 of the International Astronomical Union by the
              Minor Planet Center, Smithsonian Astrophysical Observatory,
                              Cambridge, MA 02138, U.S.A.
    
                      Supported in part by the Brinson Foundation
                      Supported in part by the TABASGO Foundation
                 Prepared using the Tamkin Foundation Computer Network
    
                                  MPC@CFA.HARVARD.EDU
              URL http://cfa-www.harvard.edu/iau/mpc.html  ISSN 1523-6714
    
                                        2006 CG
    
    Observations:
         K06C00G* C2006 02 01.30351 08 50 49.45 +09 36 43.8          21.7 V EC015G96
         K06C00G  C2006 02 01.31268 08 50 48.62 +09 36 47.2          21.5 V EC015G96
         K06C00G  C2006 02 01.32162 08 50 47.94 +09 36 50.1          21.7 V EC015G96
         K06C00G  C2006 02 01.33059 08 50 47.07 +09 36 53.3          21.8 V EC015G96
         K06C00G  C2006 02 01.36571 08 50 44.08 +09 37 05.6          22.2 V EC015G96
         K06C00G  C2006 02 01.37078 08 50 43.65 +09 37 06.6          21.8 V EC015G96
         K06C00G  C2006 02 01.37588 08 50 43.26 +09 37 08.8          21.1 V EC015G96
         K06C00G  C2006 02 01.38102 08 50 42.75 +09 37 10.9          21.7 V EC015G96
         K06C00G  C2006 02 02.30196 08 49 26.79 +09 42 32.4          21.5 V EC015G96
         K06C00G FC2006 02 02.30720 08 49 26.25 +09 42 34.1                 EC015711
         K06C00G  C2006 02 02.30896 08 49 26.14 +09 42 35.4          21.1 V EC015G96
         K06C00G  C2006 02 02.31595 08 49 25.60 +09 42 37.0          21.3 V EC015G96
         K06C00G FC2006 02 02.32019 08 49 25.30 +09 42 39.0          20.6 R EC015711
         K06C00G  C2006 02 02.32300 08 49 24.99 +09 42 39.9          21.4 V EC015G96
         K06C00G 3C2006 02 02.59050 08 49 02.60 +09 44 15.2          21.9 R EC015F65
         K06C00G 3C2006 02 02.59314 08 49 02.38 +09 44 15.9                 EC015F65
         K06C00G  C2006 02 03.27227 08 48 07.05 +09 48 13.6          21.3 V EC015G96
         K06C00G  C2006 02 03.27856 08 48 06.58 +09 48 16.2          21.1 V EC015G96
         K06C00G  C2006 02 03.28479 08 48 05.97 +09 48 18.5          21.5 V EC015G96
         K06C00G  C2006 02 03.29098 08 48 05.50 +09 48 20.3          21.4 V EC015G96
    
    Observer details:
    711 McDonald Observatory.  Observer J. G. Ries.  0.76-m reflector + CCD
        + prime-focus corrector.
    F65 Haleakala-Faulkes Telescope North.  Observers C. A. Sawyer, C. J. Barry,
        M. S. S. Cooke, J. A. Harman, A. S. E. Allen, M. E. Morgan, A. D. Taylor.
        2.0-m Ritchey-Chretien + CCD.
    G96 Mt. Lemmon Survey.  Observers S. M. Larson, R. Hill.  Measurers
        E. C. Beshore, E. J. Christensen, G. J. Garradd, A. D. Grauer, R. E. Hill,
        R. A. Kowalski, S. M. Larson, R. H. McNaught.  1.5-m reflector + CCD.
    
    Orbital elements:
    2006 CG                                                  Earth MOID = 0.2157 AU
    Epoch 2006 Mar. 6.0 TT = JDT 2453800.5                  MPC
    M 123.73043              (2000.0)            P               Q
    n   0.39991880     Peri.  117.91369     +0.98730676     +0.14652902
    a   1.8245461      Node   233.72371     -0.15876475     +0.92114548
    e   0.3374244      Incl.    4.35908     +0.00437162     +0.36058322
    P   2.46           H   19.1           G   0.15           U   9
    Residuals in seconds of arc
    060201 G96  0.4+  0.1-    060201 G96  0.6-  0.2+    060202 F65  0.0   0.6+
    060201 G96  0.3-  0.2+    060202 G96  0.1+  0.0     060202 F65  0.0   0.4+
    060201 G96  1.0+  0.0     060202 711  0.5-  0.4-    060203 G96  0.3-  0.3-
    060201 G96  0.5-  0.0     060202 G96  0.7-  0.5+    060203 G96  0.6+  0.1+
    060201 G96  0.3-  0.2+    060202 G96  0.1+  0.3-    060203 G96  0.6-  0.2+
    060201 G96  0.3-  0.6-    060202 711  1.8+  0.0     060203 G96  0.2+  0.2-
    060201 G96  0.4+  0.1-    060202 G96  0.0   0.1+
    
    Ephemeris:
    2006 CG                  a,e,i = 1.82, 0.34, 4                   q = 1.2089
    Date    TT    R. A. (2000) Decl.     Delta      r     Elong.  Phase     V
    2006 02 04    08 47.13   +09 52.6    1.216    2.196   171.5     3.8    21.6
    2006 02 09    08 40.53   +10 22.4    1.237    2.210   167.2     5.7    21.7
    2006 02 14    08 34.43   +10 52.1    1.265    2.224   161.5     8.1    21.9
    2006 02 19    08 29.00   +11 20.9    1.300    2.237   155.6    10.5    22.1
    2006 02 24    08 24.34   +11 48.1    1.340    2.250   149.6    12.9    22.3
    
    Kyle E. Smalley              (C) Copyright 2006 MPC           M.P.E.C. 2006-C15
    

    Read MPEC 2006-C14 Read MPEC 2006-C16


    MPEC number:

    Enter an MPEC number in one of the following forms:

    • 1997-B01 (the full form)
    • J97B01 (the packed version of the full form)
    • B01 (the abbreviated form)